User: anonymous   Login
Location: Unspecified
(0.0000°N, 0.0000°E)
Time: 00:58:00
(UTC+00:00)
Language:

GOES 4 - Orbit

View from above orbital plane
View from above orbital plane
View from above satellite
View from above satellite

Ground track
Ground track

The orbit data is extracted from the following two-line orbital elements,

1 11964U 80074A   21023.79077417 -.00000128  00000-0  00000+0 0  9991
2 11964  12.1453 320.5711 0034844  52.8949 138.3813  0.99228415108071
Epoch (UTC): 23 January 2021 18:58:42
Eccentricity: 0.0034844
inclination: 12.1453°
perigee height: 35933 km
apogee height: 36229 km
right ascension of ascending node: 320.5711°
argument of perigee: 52.8949°
revolutions per day: 0.99228415
mean anomaly at epoch: 138.3813°
orbit number at epoch: 10807

The dashed part of the orbit path shows where the satellite is in the earth's shadow,  

DLR